Meteo orario Abay

Oggi, 20 Giugno, Domenica

Tempo Temperatura Precipitazioni Vento Pressione Umidità
00:00 +8°C° 0 mm 3 m/s 714 mm Hg 66%
01:00 +7°C° 0 mm 3 m/s 714 mm Hg 69%
02:00 +7°C° 0 mm 3 m/s 714 mm Hg 73%
03:00 +7°C° 0 mm 3 m/s 714 mm Hg 72%
04:00 +7°C° 0 mm 2 m/s 714 mm Hg 71%
05:00 +8°C° 0 mm 3 m/s 714 mm Hg 67%
06:00 +10°C° 0 mm 4 m/s 714 mm Hg 58%
07:00 +12°C° 0 mm 5 m/s 715 mm Hg 49%
08:00 +14°C° 0 mm 6 m/s 715 mm Hg 40%
09:00 +15°C° 0 mm 7 m/s 715 mm Hg 41%
10:00 +15°C° 0 mm 8 m/s 714 mm Hg 43%
11:00 +15°C° 0 mm 9 m/s 714 mm Hg 46%
12:00 +15°C° 0 mm 8 m/s 714 mm Hg 50%
13:00 +13°C° 0 mm 8 m/s 713 mm Hg 54%
14:00 +12°C° 0 mm 7 m/s 713 mm Hg 58%
15:00 +12°C° 0.3 mm 8 m/s 713 mm Hg 64%
16:00 +12°C° 0.3 mm 8 m/s 712 mm Hg 69%
17:00 +11°C° 0.3 mm 9 m/s 712 mm Hg 75%
18:00 +12°C° 0 mm 8 m/s 711 mm Hg 74%
19:00 +12°C° 0 mm 8 m/s 711 mm Hg 73%
20:00 +12°C° 0 mm 7 m/s 710 mm Hg 73%
21:00 +12°C° 1.2 mm 8 m/s 709 mm Hg 77%
22:00 +12°C° 1.2 mm 8 m/s 709 mm Hg 81%
23:00 +11°C° 1.2 mm 9 m/s 709 mm Hg 85%

Domani, 21 Giugno, Lunedi

Tempo Temperatura Precipitazioni Vento Pressione Umidità
00:00 +11°C° 0.3 mm 8 m/s 708 mm Hg 88%
01:00 +11°C° 0.3 mm 6 m/s 708 mm Hg 91%
02:00 +12°C° 0.3 mm 5 m/s 708 mm Hg 94%
03:00 +12°C° 0.1 mm 4 m/s 708 mm Hg 91%
04:00 +11°C° 0.1 mm 4 m/s 708 mm Hg 87%
05:00 +11°C° 0.1 mm 3 m/s 708 mm Hg 84%
06:00 +12°C° 0 mm 4 m/s 708 mm Hg 72%
07:00 +13°C° 0 mm 5 m/s 708 mm Hg 60%
08:00 +14°C° 0 mm 6 m/s 709 mm Hg 47%
09:00 +15°C° 0 mm 8 m/s 709 mm Hg 46%
10:00 +15°C° 0 mm 9 m/s 709 mm Hg 45%
11:00 +14°C° 0 mm 11 m/s 709 mm Hg 43%
12:00 +12°C° 0.1 mm 10 m/s 710 mm Hg 50%
13:00 +11°C° 0.1 mm 9 m/s 710 mm Hg 57%
14:00 +10°C° 0.1 mm 8 m/s 711 mm Hg 64%
15:00 +9°C° 0.2 mm 8 m/s 711 mm Hg 66%
16:00 +9°C° 0.2 mm 8 m/s 711 mm Hg 69%
17:00 +8°C° 0.2 mm 7 m/s 712 mm Hg 72%
18:00 +8°C° 0.1 mm 7 m/s 712 mm Hg 74%
19:00 +7°C° 0.1 mm 6 m/s 713 mm Hg 77%
20:00 +7°C° 0.1 mm 6 m/s 713 mm Hg 80%
21:00 +7°C° 0 mm 5 m/s 714 mm Hg 80%
22:00 +6°C° 0 mm 5 m/s 714 mm Hg 80%
23:00 +6°C° 0 mm 5 m/s 714 mm Hg 81%

Dopodomani, 22 Giugno, Martedi

Tempo Temperatura Precipitazioni Vento Pressione Umidità
00:00 +6°C° 0 mm 4 m/s 715 mm Hg 83%
01:00 +6°C° 0 mm 4 m/s 715 mm Hg 85%
02:00 +6°C° 0 mm 4 m/s 715 mm Hg 88%
03:00 +7°C° 0 mm 4 m/s 715 mm Hg 88%
04:00 +7°C° 0 mm 4 m/s 716 mm Hg 89%
05:00 +7°C° 0 mm 4 m/s 716 mm Hg 90%
06:00 +8°C° 0 mm 4 m/s 716 mm Hg 82%
07:00 +11°C° 0 mm 4 m/s 717 mm Hg 75%
08:00 +12°C° 0 mm 4 m/s 717 mm Hg 68%
09:00 +13°C° 0.1 mm 4 m/s 717 mm Hg 66%
10:00 +13°C° 0.1 mm 3 m/s 717 mm Hg 63%
11:00 +13°C° 0.1 mm 3 m/s 717 mm Hg 61%
12:00 +14°C° 0.4 mm 4 m/s 718 mm Hg 59%
13:00 +15°C° 0.4 mm 4 m/s 718 mm Hg 56%
14:00 +15°C° 0.4 mm 5 m/s 718 mm Hg 54%
15:00 +15°C° 0.3 mm 5 m/s 718 mm Hg 55%
16:00 +15°C° 0.3 mm 6 m/s 717 mm Hg 56%
17:00 +15°C° 0.3 mm 6 m/s 717 mm Hg 57%
18:00 +14°C° 0.2 mm 5 m/s 717 mm Hg 64%
19:00 +13°C° 0.2 mm 4 m/s 717 mm Hg 72%
20:00 +13°C° 0.2 mm 2 m/s 717 mm Hg 79%
21:00 +12°C° 0 mm 2 m/s 717 mm Hg 81%
22:00 +12°C° 0 mm 2 m/s 717 mm Hg 82%
23:00 +10°C° 0 mm 2 m/s 717 mm Hg 83%

23 Giugno, Mercoledi

Tempo Temperatura Precipitazioni Vento Pressione Umidità
00:00 +10°C° 0 mm 2 m/s 716 mm Hg 83%
01:00 +10°C° 0 mm 2 m/s 716 mm Hg 82%
02:00 +10°C° 0 mm 2 m/s 716 mm Hg 81%
03:00 +10°C° 0 mm 3 m/s 715 mm Hg 81%
04:00 +11°C° 0 mm 3 m/s 715 mm Hg 80%
05:00 +11°C° 0 mm 3 m/s 715 mm Hg 80%
06:00 +11°C° 0.1 mm 4 m/s 714 mm Hg 78%
07:00 +12°C° 0.1 mm 5 m/s 714 mm Hg 75%
08:00 +13°C° 0.1 mm 6 m/s 714 mm Hg 73%
09:00 +13°C° 0.5 mm 6 m/s 713 mm Hg 74%
10:00 +12°C° 0.5 mm 7 m/s 713 mm Hg 74%
11:00 +12°C° 0.5 mm 8 m/s 712 mm Hg 74%
12:00 +13°C° 0.2 mm 8 m/s 712 mm Hg 75%
13:00 +14°C° 0.2 mm 7 m/s 712 mm Hg 75%
14:00 +14°C° 0.2 mm 7 m/s 712 mm Hg 76%
15:00 +14°C° 0.1 mm 7 m/s 712 mm Hg 71%
16:00 +15°C° 0.1 mm 7 m/s 713 mm Hg 65%
17:00 +15°C° 0.1 mm 7 m/s 713 mm Hg 60%
18:00 +13°C° 0 mm 6 m/s 713 mm Hg 63%
19:00 +12°C° 0 mm 5 m/s 714 mm Hg 66%
20:00 +9°C° 0 mm 5 m/s 714 mm Hg 69%
21:00 +8°C° 0 mm 4 m/s 714 mm Hg 73%
22:00 +8°C° 0 mm 3 m/s 714 mm Hg 77%
23:00 +7°C° 0 mm 2 m/s 714 mm Hg 81%

24 Giugno, Giovedi

Tempo Temperatura Precipitazioni Vento Pressione Umidità
00:00 +7°C° 0 mm 2 m/s 714 mm Hg 82%
01:00 +7°C° 0 mm 2 m/s 714 mm Hg 84%
02:00 +6°C° 0 mm 2 m/s 714 mm Hg 86%
03:00 +6°C° 0 mm 2 m/s 714 mm Hg 87%
04:00 +6°C° 0 mm 2 m/s 715 mm Hg 87%
05:00 +6°C° 0 mm 2 m/s 715 mm Hg 88%
06:00 +8°C° 0.1 mm 3 m/s 715 mm Hg 79%
07:00 +10°C° 0.1 mm 4 m/s 715 mm Hg 70%
08:00 +12°C° 0.1 mm 5 m/s 716 mm Hg 62%
09:00 +11°C° 0.1 mm 6 m/s 716 mm Hg 56%
10:00 +13°C° 0.1 mm 6 m/s 716 mm Hg 50%
11:00 +14°C° 0.1 mm 6 m/s 716 mm Hg 44%
12:00 +14°C° 0 mm 6 m/s 716 mm Hg 44%
13:00 +13°C° 0 mm 5 m/s 716 mm Hg 45%
14:00 +13°C° 0 mm 5 m/s 716 mm Hg 45%
15:00 +13°C° 0 mm 5 m/s 716 mm Hg 46%
16:00 +13°C° 0 mm 5 m/s 717 mm Hg 48%
17:00 +13°C° 0 mm 5 m/s 717 mm Hg 49%
18:00 +12°C° 0 mm 5 m/s 717 mm Hg 52%
19:00 +11°C° 0 mm 4 m/s 717 mm Hg 54%
20:00 +11°C° 0 mm 3 m/s 717 mm Hg 57%
21:00 +10°C° 0 mm 2 m/s 717 mm Hg 62%
22:00 +8°C° 0 mm 2 m/s 717 mm Hg 67%
23:00 +8°C° 0 mm 1 m/s 717 mm Hg 71%

25 Giugno, Venerdi

Tempo Temperatura Precipitazioni Vento Pressione Umidità
00:00 +8°C° 0 mm 1 m/s 716 mm Hg 73%
01:00 +8°C° 0 mm 1 m/s 716 mm Hg 74%
02:00 +7°C° 0 mm 1 m/s 716 mm Hg 76%
03:00 +8°C° 0 mm 1 m/s 716 mm Hg 74%
04:00 +8°C° 0 mm 1 m/s 716 mm Hg 72%
05:00 +8°C° 0 mm 1 m/s 716 mm Hg 70%
06:00 +10°C° 0 mm 1 m/s 716 mm Hg 63%
07:00 +12°C° 0 mm 1 m/s 717 mm Hg 55%
08:00 +14°C° 0 mm 1 m/s 717 mm Hg 48%
09:00 +15°C° 0 mm 2 m/s 716 mm Hg 45%
10:00 +16°C° 0 mm 2 m/s 716 mm Hg 41%
11:00 +17°C° 0 mm 2 m/s 716 mm Hg 38%
12:00 +18°C° 0 mm 2 m/s 716 mm Hg 36%
13:00 +19°C° 0 mm 2 m/s 715 mm Hg 34%
14:00 +20°C° 0 mm 2 m/s 715 mm Hg 32%
15:00 +20°C° 0 mm 2 m/s 715 mm Hg 31%
16:00 +20°C° 0 mm 2 m/s 714 mm Hg 30%
17:00 +22°C° 0 mm 1 m/s 714 mm Hg 30%
18:00 +19°C° 0 mm 2 m/s 713 mm Hg 33%
19:00 +18°C° 0 mm 3 m/s 713 mm Hg 37%
20:00 +17°C° 0 mm 3 m/s 712 mm Hg 41%
21:00 +17°C° 0 mm 4 m/s 712 mm Hg 40%
22:00 +16°C° 0 mm 5 m/s 711 mm Hg 39%
23:00 +15°C° 0 mm 5 m/s 710 mm Hg 38%
Mostrare altro

Abbiamo bisogno del tuo consenso

Meteoprog e i nostri fornitori di servizi possono memorizzare e accedere a dati personali come cookie, identificatori di dispositivi o altre tecnologie simili sul tuo dispositivo e possono elaborare tali dati per personalizzare i contenuti e gli annunci, nonché fornire funzionalità dei social media e analizzarne il traffico.

  • Archiviare e/o accedere alle informazioni sul tuo dispositivo

    Cookie, identificatori di dispositivi o altre informazioni possono essere memorizzati o resi accessibili sul tuo dispositivo per le finalità sopra indicate.

  • Annunci e contenuti personalizzati, misurazione di annunci e contenuti, approfondimenti sul pubblico e sviluppo di prodotti

    Gli annunci e i contenuti possono essere personalizzati in base a un profilo. È possibile aggiungere più dati per personalizzare meglio annunci e contenuti. È possibile misurare il rendimento degli annunci e dei contenuti. È possibile ricavare informazioni sul pubblico che ha visto gli annunci e i contenuti. Tali dati possono essere utilizzati per sviluppare o migliorare l'esperienza, i sistemi e il software dell'utente.

Cliccando su “Accetto”, acconsenti all'uso di cookie, identificatori di dispositivo, web beacon o altre tecnologie simili. Puoi modificare le impostazioni nel browser del tuo dispositivo.

Per determinati scopi, è possibile fare affidamento su interessi legali, piuttosto che sul consenso. Puoi approfondire questo argomento consultando la nostra Informativa sulla privacy e sui cookie.